Time,TemperatureF,DewpointF,PressureIn,WindDirection,WindDirectionDegrees,WindSpeedMPH,WindSpeedGustMPH,Humidity,HourlyPrecipIn,Conditions,Clouds,dailyrainin,SoftwareType,DateUTC
2013-04-21 00:01:00,74.7,74.4,30.02,North,5,3.0,8.0,99,0.00,,---,0.28,VWS V14.01,2013-04-21 04:01:00,
2013-04-21 00:02:00,74.7,74.4,30.02,North,5,1.0,8.0,99,0.00,,---,0.28,VWS V14.01,2013-04-21 04:02:00,
2013-04-21 00:03:00,74.7,74.4,30.02,North,5,3.0,8.0,99,0.00,,---,0.00,VWS V14.01,2013-04-21 04:03:00,
2013-04-21 00:06:00,74.7,74.4,30.02,North,5,2.0,5.0,99,0.00,,---,0.00,VWS V14.01,2013-04-21 04:06:00,
2013-04-21 00:11:00,74.7,74.4,30.02,North,5,1.0,5.0,99,0.00,,---,0.00,VWS V14.01,2013-04-21 04:11:00,
2013-04-21 00:16:00,74.7,74.4,30.02,North,5,1.0,5.0,99,0.00,,---,0.00,VWS V14.01,2013-04-21 04:16:00,
2013-04-21 00:21:00,74.6,74.3,30.02,North,5,2.0,6.0,99,0.00,,---,0.00,VWS V14.01,2013-04-21 04:21:00,
2013-04-21 00:26:00,74.6,74.3,30.02,North,5,1.0,6.0,99,0.00,,---,0.00,VWS V14.01,2013-04-21 04:26:00,
2013-04-21 00:31:00,74.6,74.3,30.02,North,5,4.0,6.0,99,0.00,,---,0.00,VWS V14.01,2013-04-21 04:31:00,
2013-04-21 00:36:00,74.4,74.1,30.01,North,5,3.0,6.0,99,0.00,,---,0.00,VWS V14.01,2013-04-21 04:36:00,
2013-04-21 00:41:00,74.4,74.1,30.01,North,5,1.0,6.0,99,0.00,,---,0.00,VWS V14.01,2013-04-21 04:41:00,
2013-04-21 00:46:00,74.4,74.1,30.01,North,5,0.0,6.0,99,0.00,,---,0.00,VWS V14.01,2013-04-21 04:46:00,
2013-04-21 00:52:00,74.4,74.1,30.00,North,5,0.0,6.0,99,0.00,,---,0.00,VWS V14.01,2013-04-21 04:52:00,
2013-04-21 00:57:00,74.2,73.9,30.00,North,5,0.0,6.0,99,0.00,,---,0.00,VWS V14.01,2013-04-21 04:57:00,
2013-04-21 01:02:00,74.2,73.9,30.00,North,5,0.0,6.0,99,0.00,,---,0.00,VWS V14.01,2013-04-21 05:02:00,
2013-04-21 01:07:00,74.2,74.2,30.00,North,5,3.0,4.0,100,0.00,,---,0.00,VWS V14.01,2013-04-21 05:07:00,
2013-04-21 01:12:00,74.2,74.2,30.00,North,5,2.0,4.0,100,0.00,,---,0.00,VWS V14.01,2013-04-21 05:12:00,
2013-04-21 01:17:00,74.0,74.0,30.00,North,5,4.0,4.0,100,0.00,,---,0.00,VWS V14.01,2013-04-21 05:17:00,
2013-04-21 01:22:00,74.0,74.0,30.00,North,5,0.0,4.0,100,0.00,,---,0.00,VWS V14.01,2013-04-21 05:22:00,
2013-04-21 01:27:00,74.0,74.0,30.00,North,5,0.0,5.0,100,0.00,,---,0.00,VWS V14.01,2013-04-21 05:27:00,
2013-04-21 01:32:00,74.0,74.0,30.00,North,5,0.0,5.0,100,0.00,,---,0.00,VWS V14.01,2013-04-21 05:32:00,
2013-04-21 01:37:00,74.0,74.0,30.00,North,5,3.0,3.0,100,0.00,,---,0.00,VWS V14.01,2013-04-21 05:37:00,
2013-04-21 01:42:00,74.0,74.0,30.00,North,5,6.0,6.0,100,0.00,,---,0.00,VWS V14.01,2013-04-21 05:42:00,
2013-04-21 01:47:00,74.0,74.0,30.00,North,5,2.0,6.0,100,0.00,,---,0.00,VWS V14.01,2013-04-21 05:47:00,
2013-04-21 01:52:00,74.0,74.0,30.00,North,360,2.0,6.0,100,0.00,,---,0.00,VWS V14.01,2013-04-21 05:52:00,
2013-04-21 01:57:00,74.0,74.0,30.00,North,360,2.0,8.0,100,0.00,,---,0.00,VWS V14.01,2013-04-21 05:57:00,
2013-04-21 02:02:00,74.0,74.0,29.99,North,360,2.0,8.0,100,0.00,,---,0.00,VWS V14.01,2013-04-21 06:02:00,
2013-04-21 02:07:00,73.9,73.9,29.99,North,360,4.0,4.0,100,0.00,,---,0.00,VWS V14.01,2013-04-21 06:07:00,
2013-04-21 02:12:00,73.9,73.9,29.99,North,360,3.0,5.0,100,0.00,,---,0.00,VWS V14.01,2013-04-21 06:12:00,
2013-04-21 02:17:00,73.9,73.9,29.99,North,360,0.0,5.0,100,0.00,,---,0.00,VWS V14.01,2013-04-21 06:17:00,
2013-04-21 02:22:00,73.7,73.7,29.99,North,360,2.0,5.0,100,0.00,,---,0.00,VWS V14.01,2013-04-21 06:22:00,
2013-04-21 02:27:00,73.7,73.7,29.99,North,360,2.0,5.0,100,0.00,,---,0.00,VWS V14.01,2013-04-21 06:27:00,
2013-04-21 02:32:00,73.7,73.7,29.98,North,360,2.0,5.0,100,0.00,,---,0.00,VWS V14.01,2013-04-21 06:32:00,
2013-04-21 02:37:00,73.5,73.5,29.98,North,360,2.0,3.0,100,0.00,,---,0.00,VWS V14.01,2013-04-21 06:37:00,
2013-04-21 02:43:00,73.5,73.5,29.98,North,360,2.0,3.0,100,0.00,,---,0.00,VWS V14.01,2013-04-21 06:43:00,
2013-04-21 02:48:00,73.5,73.5,29.98,North,355,3.0,4.0,100,0.00,,---,0.00,VWS V14.01,2013-04-21 06:48:00,
2013-04-21 02:53:00,73.3,73.3,29.98,North,355,4.0,4.0,100,0.00,,---,0.00,VWS V14.01,2013-04-21 06:53:00,
2013-04-21 02:58:00,73.3,73.3,29.98,North,355,1.0,4.0,100,0.00,,---,0.00,VWS V14.01,2013-04-21 06:58:00,
2013-04-21 03:03:00,73.3,73.3,29.98,North,355,5.0,5.0,100,0.00,,---,0.00,VWS V14.01,2013-04-21 07:03:00,
2013-04-21 03:08:00,73.3,73.3,29.98,North,355,3.0,5.0,100,0.00,,---,0.00,VWS V14.01,2013-04-21 07:08:00,
2013-04-21 03:13:00,73.3,73.3,29.98,North,355,0.0,5.0,100,0.00,,---,0.00,VWS V14.01,2013-04-21 07:13:00,
2013-04-21 03:18:00,73.3,73.3,29.98,North,355,0.0,5.0,100,0.00,,---,0.00,VWS V14.01,2013-04-21 07:18:00,
2013-04-21 03:23:00,73.3,73.3,29.98,North,355,0.0,5.0,100,0.00,,---,0.00,VWS V14.01,2013-04-21 07:23:00,
2013-04-21 03:28:00,73.2,73.2,29.98,North,355,0.0,5.0,100,0.00,,---,0.00,VWS V14.01,2013-04-21 07:28:00,
2013-04-21 03:33:00,73.2,73.2,29.97,North,355,0.0,0.0,100,0.00,,---,0.00,VWS V14.01,2013-04-21 07:33:00,
2013-04-21 03:38:00,73.2,73.2,29.97,North,355,0.0,0.0,100,0.00,,---,0.00,VWS V14.01,2013-04-21 07:38:00,
2013-04-21 03:43:00,73.2,73.2,29.97,North,355,0.0,0.0,100,0.00,,---,0.00,VWS V14.01,2013-04-21 07:43:00,
2013-04-21 03:48:00,73.0,73.0,29.96,North,355,0.0,1.0,100,0.00,,---,0.00,VWS V14.01,2013-04-21 07:48:00,
2013-04-21 03:53:00,73.0,73.0,29.96,North,355,0.0,1.0,100,0.00,,---,0.00,VWS V14.01,2013-04-21 07:53:00,
2013-04-21 03:58:00,73.0,73.0,29.96,North,355,0.0,1.0,100,0.00,,---,0.00,VWS V14.01,2013-04-21 07:58:00,
2013-04-21 04:03:00,72.8,72.8,29.96,North,355,0.0,0.0,100,0.00,,---,0.00,VWS V14.01,2013-04-21 08:03:00,
2013-04-21 04:08:00,72.8,72.8,29.96,North,355,0.0,1.0,100,0.00,,---,0.00,VWS V14.01,2013-04-21 08:08:00,
2013-04-21 04:13:00,72.8,72.8,29.96,North,355,0.0,1.0,100,0.00,,---,0.00,VWS V14.01,2013-04-21 08:13:00,
2013-04-21 04:18:00,72.8,72.8,29.95,North,355,0.0,1.0,100,0.00,,---,0.00,VWS V14.01,2013-04-21 08:18:00,
2013-04-21 04:23:00,72.8,72.8,29.95,North,355,0.0,1.0,100,0.00,,---,0.00,VWS V14.01,2013-04-21 08:23:00,
2013-04-21 04:28:00,72.7,72.7,29.95,North,355,0.0,1.0,100,0.00,,---,0.00,VWS V14.01,2013-04-21 08:28:00,
2013-04-21 04:34:00,72.7,72.7,29.94,North,355,0.0,0.0,100,0.00,,---,0.00,VWS V14.01,2013-04-21 08:34:00,
2013-04-21 04:40:00,72.7,72.7,29.94,North,355,0.0,2.0,100,0.00,,---,0.00,VWS V14.01,2013-04-21 08:40:00,
2013-04-21 04:45:00,72.7,72.7,29.94,North,355,0.0,2.0,100,0.00,,---,0.00,VWS V14.01,2013-04-21 08:45:00,
2013-04-21 04:50:00,72.8,72.8,29.94,North,355,0.0,2.0,100,0.00,,---,0.00,VWS V14.01,2013-04-21 08:50:00,
2013-04-21 04:55:00,72.8,72.8,29.94,North,355,0.0,2.0,100,0.00,,---,0.00,VWS V14.01,2013-04-21 08:55:00,
2013-04-21 05:00:00,72.8,72.8,29.94,North,355,0.0,2.0,100,0.00,,---,0.00,VWS V14.01,2013-04-21 09:00:00,
2013-04-21 05:05:00,72.7,72.7,29.94,North,355,0.0,1.0,100,0.00,,---,0.00,VWS V14.01,2013-04-21 09:05:00,
2013-04-21 05:10:00,72.7,72.7,29.94,North,355,0.0,4.0,100,0.00,,---,0.00,VWS V14.01,2013-04-21 09:10:00,
2013-04-21 05:15:00,72.7,72.7,29.94,North,355,0.0,4.0,100,0.00,,---,0.00,VWS V14.01,2013-04-21 09:15:00,
2013-04-21 05:20:00,72.7,72.7,29.94,North,355,1.0,4.0,100,0.00,,---,0.00,VWS V14.01,2013-04-21 09:20:00,
2013-04-21 05:25:00,72.7,72.7,29.94,North,355,2.0,4.0,100,0.00,,---,0.00,VWS V14.01,2013-04-21 09:25:00,
2013-04-21 05:30:00,72.7,72.7,29.94,North,355,1.0,4.0,100,0.00,,---,0.00,VWS V14.01,2013-04-21 09:30:00,
2013-04-21 05:35:00,72.7,72.7,29.94,North,355,0.0,0.0,100,0.00,,---,0.00,VWS V14.01,2013-04-21 09:35:00,
2013-04-21 05:40:00,72.7,72.7,29.94,North,355,2.0,2.0,100,0.00,,---,0.00,VWS V14.01,2013-04-21 09:40:00,
2013-04-21 05:45:00,72.5,72.5,29.94,North,355,0.0,3.0,100,0.00,,---,0.00,VWS V14.01,2013-04-21 09:45:00,
2013-04-21 05:51:00,72.5,72.5,29.93,North,355,0.0,3.0,100,0.00,,---,0.00,VWS V14.01,2013-04-21 09:51:00,
2013-04-21 05:56:00,72.5,72.5,29.93,North,355,0.0,3.0,100,0.00,,---,0.00,VWS V14.01,2013-04-21 09:56:00,
2013-04-21 06:01:00,72.7,72.7,29.93,North,355,2.0,3.0,100,0.00,,---,0.00,VWS V14.01,2013-04-21 10:01:00,
2013-04-21 06:06:00,72.7,72.7,29.95,North,355,1.0,3.0,100,0.00,,---,0.00,VWS V14.01,2013-04-21 10:06:00,
2013-04-21 06:11:00,72.7,72.7,29.95,North,355,6.0,6.0,100,0.00,,---,0.00,VWS V14.01,2013-04-21 10:11:00,
2013-04-21 06:16:00,72.7,72.7,29.95,North,351,5.0,6.0,100,0.00,,---,0.00,VWS V14.01,2013-04-21 10:16:00,
2013-04-21 06:21:00,72.7,72.7,29.96,NNW,348,6.0,10.0,100,0.00,,---,0.00,VWS V14.01,2013-04-21 10:21:00,
2013-04-21 06:26:00,72.8,72.8,29.96,NNW,348,5.0,10.0,100,0.00,,---,0.00,VWS V14.01,2013-04-21 10:26:00,
2013-04-21 06:31:00,72.8,72.8,29.96,NNW,346,4.0,10.0,100,0.00,,---,0.00,VWS V14.01,2013-04-21 10:31:00,
2013-04-21 06:36:00,72.8,72.8,29.96,NNW,345,3.0,7.0,100,0.00,,---,0.00,VWS V14.01,2013-04-21 10:36:00,
2013-04-21 06:41:00,72.8,72.8,29.96,North,349,5.0,7.0,100,0.00,,---,0.00,VWS V14.01,2013-04-21 10:41:00,
2013-04-21 06:46:00,72.8,72.8,29.96,NNW,346,2.0,9.0,100,0.00,,---,0.00,VWS V14.01,2013-04-21 10:46:00,
2013-04-21 06:51:00,73.0,73.0,29.98,NNW,346,4.0,9.0,100,0.00,,---,0.00,VWS V14.01,2013-04-21 10:51:00,
2013-04-21 06:56:00,73.0,73.0,29.98,NNW,342,4.0,9.0,100,0.00,,---,0.00,VWS V14.01,2013-04-21 10:56:00,
2013-04-21 07:01:00,73.0,73.0,29.98,NNW,341,3.0,9.0,100,0.00,,---,0.00,VWS V14.01,2013-04-21 11:01:00,
2013-04-21 07:06:00,72.8,72.8,29.99,NW,313,12.0,12.0,100,0.00,,---,0.00,VWS V14.01,2013-04-21 11:06:00,
2013-04-21 07:11:00,72.7,72.7,29.99,NNW,341,3.0,12.0,100,0.00,,---,0.00,VWS V14.01,2013-04-21 11:11:00,
2013-04-21 07:16:00,72.3,72.3,29.99,NNW,343,4.0,12.0,100,0.00,,---,0.00,VWS V14.01,2013-04-21 11:16:00,
2013-04-21 07:21:00,72.3,72.3,30.00,NNW,342,3.0,12.0,100,0.00,,---,0.00,VWS V14.01,2013-04-21 11:21:00,
2013-04-21 07:26:00,72.3,72.3,30.00,NNW,343,1.0,12.0,100,0.00,,---,0.00,VWS V14.01,2013-04-21 11:26:00,
2013-04-21 07:32:00,72.3,72.3,30.00,North,350,1.0,12.0,100,0.00,,---,0.00,VWS V14.01,2013-04-21 11:32:00,
2013-04-21 07:37:00,72.3,72.3,29.99,North,350,0.0,4.0,100,0.00,,---,0.00,VWS V14.01,2013-04-21 11:37:00,
2013-04-21 07:42:00,72.3,72.3,29.99,North,351,2.0,6.0,100,0.00,,---,0.00,VWS V14.01,2013-04-21 11:42:00,
2013-04-21 07:47:00,72.3,72.3,29.99,North,351,5.0,6.0,100,0.00,,---,0.00,VWS V14.01,2013-04-21 11:47:00,
2013-04-21 07:52:00,72.5,72.5,29.99,North,351,4.0,6.0,100,0.00,,---,0.00,VWS V14.01,2013-04-21 11:52:00,
2013-04-21 07:57:00,72.5,72.5,29.99,North,351,2.0,6.0,100,0.00,,---,0.00,VWS V14.01,2013-04-21 11:57:00,
2013-04-21 08:02:00,72.7,72.7,29.99,North,351,2.0,6.0,100,0.00,,---,0.00,VWS V14.01,2013-04-21 12:02:00,
2013-04-21 08:07:00,73.0,73.0,29.99,North,351,3.0,3.0,100,0.00,,---,0.00,VWS V14.01,2013-04-21 12:07:00,
2013-04-21 08:12:00,73.2,73.2,29.99,North,351,2.0,6.0,100,0.00,,---,0.00,VWS V14.01,2013-04-21 12:12:00,
2013-04-21 08:17:00,73.5,73.5,29.99,North,351,2.0,6.0,100,0.00,,---,0.00,VWS V14.01,2013-04-21 12:17:00,
2013-04-21 08:22:00,73.9,73.9,29.99,North,351,0.0,6.0,100,0.00,,---,0.00,VWS V14.01,2013-04-21 12:22:00,
2013-04-21 08:27:00,74.2,74.2,29.99,North,351,0.0,6.0,100,0.00,,---,0.00,VWS V14.01,2013-04-21 12:27:00,
2013-04-21 08:32:00,74.6,74.6,30.00,North,355,0.0,6.0,100,0.00,,---,0.00,VWS V14.01,2013-04-21 12:32:00,
2013-04-21 08:37:00,75.1,75.1,30.00,North,355,1.0,3.0,100,0.00,,---,0.00,VWS V14.01,2013-04-21 12:37:00,
2013-04-21 08:42:00,75.4,75.1,30.00,North,355,2.0,3.0,99,0.00,,---,0.00,VWS V14.01,2013-04-21 12:42:00,
2013-04-21 08:47:00,75.8,75.2,30.00,North,355,0.0,7.0,98,0.00,,---,0.00,VWS V14.01,2013-04-21 12:47:00,
2013-04-21 08:52:00,76.1,75.2,30.00,North,355,1.0,7.0,97,0.00,,---,0.00,VWS V14.01,2013-04-21 12:52:00,
2013-04-21 08:57:00,76.7,75.2,30.00,North,349,5.0,7.0,95,0.00,,---,0.00,VWS V14.01,2013-04-21 12:57:00,
2013-04-21 09:02:00,77.2,75.0,30.00,North,355,2.0,7.0,93,0.00,,---,0.00,VWS V14.01,2013-04-21 13:02:00,
2013-04-21 09:07:00,77.7,74.9,30.00,NE,52,6.0,6.0,91,0.00,,---,0.00,VWS V14.01,2013-04-21 13:07:00,
2013-04-21 09:12:00,78.3,74.8,30.00,NE,51,0.0,6.0,89,0.00,,---,0.00,VWS V14.01,2013-04-21 13:12:00,
2013-04-21 09:17:00,78.8,74.3,30.00,ENE,59,0.0,6.0,86,0.00,,---,0.00,VWS V14.01,2013-04-21 13:17:00,
2013-04-21 09:22:00,79.4,74.2,30.00,ENE,57,2.0,6.0,84,0.00,,---,0.00,VWS V14.01,2013-04-21 13:22:00,
2013-04-21 09:27:00,79.9,73.9,30.00,ENE,57,2.0,6.0,82,0.00,,---,0.00,VWS V14.01,2013-04-21 13:27:00,
2013-04-21 09:33:00,80.3,73.9,30.01,ENE,57,3.0,6.0,81,0.00,,---,0.00,VWS V14.01,2013-04-21 13:33:00,
2013-04-21 09:38:00,80.5,73.4,30.01,ENE,57,4.0,4.0,79,0.00,,---,0.00,VWS V14.01,2013-04-21 13:38:00,
2013-04-21 09:43:00,80.9,73.8,30.01,ENE,59,5.0,5.0,79,0.00,,---,0.00,VWS V14.01,2013-04-21 13:43:00,
2013-04-21 09:48:00,81.2,73.3,30.01,ENE,61,0.0,5.0,77,0.00,,---,0.00,VWS V14.01,2013-04-21 13:48:00,
2013-04-21 09:53:00,81.6,73.7,30.01,ENE,67,7.0,10.0,77,0.00,,---,0.00,VWS V14.01,2013-04-21 13:53:00,
2013-04-21 09:58:00,82.0,74.1,30.01,NE,47,4.0,10.0,77,0.00,,---,0.00,VWS V14.01,2013-04-21 13:58:00,
2013-04-21 10:03:00,82.4,74.5,30.01,ENE,62,7.0,10.0,77,0.00,,---,0.00,VWS V14.01,2013-04-21 14:03:00,
2013-04-21 10:08:00,82.6,73.9,30.01,NE,43,7.0,7.0,75,0.00,,---,0.00,VWS V14.01,2013-04-21 14:08:00,
2013-04-21 10:13:00,82.8,73.3,30.01,ENE,78,5.0,7.0,73,0.00,,---,0.00,VWS V14.01,2013-04-21 14:13:00,
2013-04-21 10:18:00,83.2,72.4,30.01,NE,44,6.0,7.0,70,0.00,,---,0.00,VWS V14.01,2013-04-21 14:18:00,
2013-04-21 10:23:00,83.6,73.6,30.01,NE,51,2.0,10.0,72,0.00,,---,0.00,VWS V14.01,2013-04-21 14:23:00,
2013-04-21 10:28:00,84.1,74.5,30.01,NE,49,5.0,10.0,73,0.00,,---,0.00,VWS V14.01,2013-04-21 14:28:00,
2013-04-21 10:33:00,84.5,74.1,30.02,ENE,71,5.0,10.0,71,0.00,,---,0.00,VWS V14.01,2013-04-21 14:33:00,
2013-04-21 10:38:00,84.9,74.4,30.02,ENE,74,5.0,7.0,71,0.00,,---,0.00,VWS V14.01,2013-04-21 14:38:00,
2013-04-21 10:43:00,84.7,74.3,30.02,East,79,3.0,11.0,71,0.00,,---,0.00,VWS V14.01,2013-04-21 14:43:00,
2013-04-21 10:48:00,84.7,74.3,30.02,East,82,7.0,11.0,71,0.00,,---,0.00,VWS V14.01,2013-04-21 14:48:00,
2013-04-21 10:53:00,84.3,73.5,30.02,East,82,9.0,11.0,70,0.00,,---,0.00,VWS V14.01,2013-04-21 14:53:00,
2013-04-21 10:58:00,84.1,72.4,30.02,East,99,2.0,11.0,68,0.00,,---,0.00,VWS V14.01,2013-04-21 14:58:00,
2013-04-21 11:03:00,84.3,72.2,30.02,East,87,5.0,5.0,67,0.00,,---,0.00,VWS V14.01,2013-04-21 15:03:00,
2013-04-21 11:08:00,84.1,72.0,30.02,East,88,3.0,5.0,67,0.00,,---,0.00,VWS V14.01,2013-04-21 15:08:00,
2013-04-21 11:13:00,84.5,73.7,30.02,East,88,3.0,7.0,70,0.00,,---,0.00,VWS V14.01,2013-04-21 15:13:00,
2013-04-21 11:18:00,84.7,72.5,30.02,East,89,10.0,10.0,67,0.00,,---,0.00,VWS V14.01,2013-04-21 15:18:00,
2013-04-21 11:23:00,84.7,71.6,30.02,East,88,6.0,10.0,65,0.00,,---,0.00,VWS V14.01,2013-04-21 15:23:00,
2013-04-21 11:29:00,84.7,71.2,30.02,ESE,121,3.0,11.0,64,0.00,,---,0.00,VWS V14.01,2013-04-21 15:29:00,
2013-04-21 11:34:00,84.7,71.6,30.02,ESE,121,3.0,5.0,65,0.00,,---,0.00,VWS V14.01,2013-04-21 15:34:00,
2013-04-21 11:39:00,85.1,72.5,30.02,ESE,114,2.0,6.0,66,0.00,,---,0.00,VWS V14.01,2013-04-21 15:39:00,
2013-04-21 11:44:00,85.3,71.8,30.02,East,96,7.0,7.0,64,0.00,,---,0.00,VWS V14.01,2013-04-21 15:44:00,
2013-04-21 11:49:00,85.7,72.6,30.02,East,101,2.0,7.0,65,0.00,,---,0.00,VWS V14.01,2013-04-21 15:49:00,
2013-04-21 11:54:00,85.9,70.4,30.02,ESE,117,3.0,7.0,60,0.00,,---,0.00,VWS V14.01,2013-04-21 15:54:00,
2013-04-21 11:59:00,85.7,70.7,30.02,ESE,113,1.0,7.0,61,0.00,,---,0.00,VWS V14.01,2013-04-21 15:59:00,
2013-04-21 12:04:00,85.7,69.7,30.02,ESE,113,5.0,5.0,59,0.00,,---,0.00,VWS V14.01,2013-04-21 16:04:00,
2013-04-21 12:09:00,85.5,68.0,30.02,East,90,3.0,9.0,56,0.00,,---,0.00,VWS V14.01,2013-04-21 16:09:00,
2013-04-21 12:14:00,85.9,68.4,30.02,East,86,7.0,14.0,56,0.00,,---,0.00,VWS V14.01,2013-04-21 16:14:00,
2013-04-21 12:19:00,86.3,71.3,30.02,East,93,9.0,14.0,61,0.00,,---,0.00,VWS V14.01,2013-04-21 16:19:00,
2013-04-21 12:24:00,86.3,73.2,30.02,ESE,109,3.0,14.0,65,0.00,,---,0.00,VWS V14.01,2013-04-21 16:24:00,
2013-04-21 12:29:00,85.9,73.2,30.02,ENE,72,10.0,14.0,66,0.00,,---,0.00,VWS V14.01,2013-04-21 16:29:00,
2013-04-21 12:34:00,85.7,73.5,30.02,East,92,2.0,5.0,67,0.00,,---,0.00,VWS V14.01,2013-04-21 16:34:00,
2013-04-21 12:39:00,85.9,73.7,30.02,ESE,109,12.0,12.0,67,0.00,,---,0.00,VWS V14.01,2013-04-21 16:39:00,
2013-04-21 12:44:00,86.1,73.9,30.02,ESE,109,3.0,12.0,67,0.00,,---,0.00,VWS V14.01,2013-04-21 16:44:00,
2013-04-21 12:49:00,85.7,73.5,30.02,ENE,71,7.0,12.0,67,0.00,,---,0.00,VWS V14.01,2013-04-21 16:49:00,
2013-04-21 12:54:00,85.3,73.1,30.02,SE,129,3.0,12.0,67,0.00,,---,0.00,VWS V14.01,2013-04-21 16:54:00,
2013-04-21 12:59:00,85.5,73.7,30.02,ENE,62,4.0,12.0,68,0.00,,---,0.00,VWS V14.01,2013-04-21 16:59:00,
2013-04-21 13:04:00,85.7,73.9,30.01,ENE,75,8.0,9.0,68,0.00,,---,0.00,VWS V14.01,2013-04-21 17:04:00,
2013-04-21 13:09:00,86.1,74.3,30.01,East,90,4.0,14.0,68,0.00,,---,0.00,VWS V14.01,2013-04-21 17:09:00,
2013-04-21 13:14:00,85.9,73.7,30.01,ESE,111,5.0,14.0,67,0.00,,---,0.00,VWS V14.01,2013-04-21 17:14:00,
2013-04-21 13:19:00,85.9,73.7,30.00,ESE,105,6.0,14.0,67,0.00,,---,0.00,VWS V14.01,2013-04-21 17:19:00,
2013-04-21 13:25:00,85.9,74.1,30.00,East,98,6.0,14.0,68,0.00,,---,0.00,VWS V14.01,2013-04-21 17:25:00,
2013-04-21 13:30:00,86.1,73.9,30.00,East,94,4.0,14.0,67,0.00,,---,0.00,VWS V14.01,2013-04-21 17:30:00,
2013-04-21 13:35:00,86.1,73.9,29.99,SE,127,4.0,8.0,67,0.00,,---,0.00,VWS V14.01,2013-04-21 17:35:00,
2013-04-21 13:40:00,85.9,73.7,29.99,East,86,9.0,10.0,67,0.00,,---,0.00,VWS V14.01,2013-04-21 17:40:00,
2013-04-21 13:45:00,85.7,73.9,29.99,ESE,108,5.0,11.0,68,0.00,,---,0.00,VWS V14.01,2013-04-21 17:45:00,
2013-04-21 13:50:00,86.1,74.3,29.99,SE,146,7.0,11.0,68,0.00,,---,0.00,VWS V14.01,2013-04-21 17:50:00,
2013-04-21 13:55:00,85.9,73.7,29.99,ESE,121,8.0,13.0,67,0.00,,---,0.00,VWS V14.01,2013-04-21 17:55:00,
2013-04-21 14:00:00,85.7,73.5,29.99,SE,127,4.0,13.0,67,0.00,,---,0.00,VWS V14.01,2013-04-21 18:00:00,
2013-04-21 14:05:00,85.5,73.3,29.99,East,92,4.0,7.0,67,0.00,,---,0.00,VWS V14.01,2013-04-21 18:05:00,
2013-04-21 14:10:00,85.5,73.3,29.99,East,81,10.0,13.0,67,0.00,,---,0.00,VWS V14.01,2013-04-21 18:10:00,
2013-04-21 14:15:00,85.9,73.7,29.99,SE,138,10.0,13.0,67,0.00,,---,0.00,VWS V14.01,2013-04-21 18:15:00,
2013-04-21 14:20:00,86.1,73.9,29.98,ESE,108,6.0,13.0,67,0.00,,---,0.00,VWS V14.01,2013-04-21 18:20:00,
2013-04-21 14:25:00,86.1,73.0,29.98,ENE,64,6.0,13.0,65,0.00,,---,0.00,VWS V14.01,2013-04-21 18:25:00,
2013-04-21 14:30:00,85.9,73.7,29.98,ENE,70,7.0,13.0,67,0.00,,---,0.00,VWS V14.01,2013-04-21 18:30:00,
2013-04-21 14:35:00,85.7,73.5,29.97,ESE,107,6.0,9.0,67,0.00,,---,0.00,VWS V14.01,2013-04-21 18:35:00,
2013-04-21 14:40:00,85.3,73.1,29.97,ESE,111,10.0,10.0,67,0.00,,---,0.00,VWS V14.01,2013-04-21 18:40:00,
2013-04-21 14:45:00,85.3,74.0,29.97,ESE,123,4.0,10.0,69,0.00,,---,0.00,VWS V14.01,2013-04-21 18:45:00,
2013-04-21 14:50:00,85.3,73.6,29.97,ESE,122,11.0,11.0,68,0.00,,---,0.00,VWS V14.01,2013-04-21 18:50:00,
2013-04-21 14:55:00,85.1,73.4,29.97,SE,124,3.0,11.0,68,0.00,,---,0.00,VWS V14.01,2013-04-21 18:55:00,
2013-04-21 15:00:00,85.3,73.1,29.97,ESE,110,2.0,11.0,67,0.00,,---,0.00,VWS V14.01,2013-04-21 19:00:00,
2013-04-21 15:05:00,85.5,72.8,29.96,East,92,3.0,7.0,66,0.00,,---,0.00,VWS V14.01,2013-04-21 19:05:00,
2013-04-21 15:10:00,85.7,73.0,29.96,East,98,4.0,11.0,66,0.00,,---,0.00,VWS V14.01,2013-04-21 19:10:00,
2013-04-21 15:15:00,86.3,73.6,29.96,East,100,2.0,11.0,66,0.00,,---,0.00,VWS V14.01,2013-04-21 19:15:00,
2013-04-21 15:21:00,87.2,74.9,29.94,ESE,110,4.0,11.0,67,0.00,,---,0.00,VWS V14.01,2013-04-21 19:21:00,
2013-04-21 15:26:00,87.6,74.4,29.94,East,90,6.0,11.0,65,0.00,,---,0.00,VWS V14.01,2013-04-21 19:26:00,
2013-04-21 15:31:00,87.6,74.4,29.94,ESE,120,4.0,11.0,65,0.00,,---,0.00,VWS V14.01,2013-04-21 19:31:00,
2013-04-21 15:36:00,87.4,73.7,29.94,ESE,102,1.0,7.0,64,0.00,,---,0.00,VWS V14.01,2013-04-21 19:36:00,
2013-04-21 15:41:00,86.7,73.5,29.94,ESE,103,4.0,7.0,65,0.00,,---,0.00,VWS V14.01,2013-04-21 19:41:00,
2013-04-21 15:46:00,86.1,73.4,29.94,East,95,2.0,7.0,66,0.00,,---,0.00,VWS V14.01,2013-04-21 19:46:00,
2013-04-21 15:51:00,85.7,73.0,29.93,ESE,111,2.0,9.0,66,0.00,,---,0.00,VWS V14.01,2013-04-21 19:51:00,
2013-04-21 15:56:00,85.7,73.0,29.93,ESE,119,7.0,10.0,66,0.00,,---,0.00,VWS V14.01,2013-04-21 19:56:00,
2013-04-21 16:01:00,85.3,72.7,29.93,East,96,6.0,10.0,66,0.00,,---,0.00,VWS V14.01,2013-04-21 20:01:00,
2013-04-21 16:06:00,84.9,72.7,29.93,East,79,2.0,4.0,67,0.00,,---,0.00,VWS V14.01,2013-04-21 20:06:00,
2013-04-21 16:11:00,84.3,72.2,29.93,East,92,6.0,10.0,67,0.00,,---,0.00,VWS V14.01,2013-04-21 20:11:00,
2013-04-21 16:16:00,84.0,72.7,29.93,East,88,6.0,10.0,69,0.00,,---,0.00,VWS V14.01,2013-04-21 20:16:00,
2013-04-21 16:21:00,83.4,72.2,29.93,East,100,5.0,10.0,69,0.00,,---,0.00,VWS V14.01,2013-04-21 20:21:00,
2013-04-21 16:26:00,83.0,72.6,29.93,East,92,2.0,10.0,71,0.00,,---,0.00,VWS V14.01,2013-04-21 20:26:00,
2013-04-21 16:31:00,82.6,72.7,29.93,ESE,107,2.0,10.0,72,0.00,,---,0.00,VWS V14.01,2013-04-21 20:31:00,
2013-04-21 16:36:00,82.4,72.5,29.93,ESE,103,5.0,5.0,72,0.00,,---,0.00,VWS V14.01,2013-04-21 20:36:00,
2013-04-21 16:41:00,82.2,72.7,29.93,East,101,4.0,7.0,73,0.00,,---,0.00,VWS V14.01,2013-04-21 20:41:00,
2013-04-21 16:46:00,81.8,72.7,29.93,ESE,105,5.0,7.0,74,0.00,,---,0.00,VWS V14.01,2013-04-21 20:46:00,
2013-04-21 16:51:00,81.2,72.1,29.92,ESE,105,4.0,7.0,74,0.00,,---,0.00,VWS V14.01,2013-04-21 20:51:00,
2013-04-21 16:56:00,81.1,72.4,29.92,ESE,109,3.0,7.0,75,0.00,,---,0.00,VWS V14.01,2013-04-21 20:56:00,
2013-04-21 17:01:00,80.9,72.2,29.92,ESE,107,4.0,7.0,75,0.00,,---,0.00,VWS V14.01,2013-04-21 21:01:00,
2013-04-21 17:06:00,80.7,72.4,29.92,ESE,109,5.0,6.0,76,0.00,,---,0.00,VWS V14.01,2013-04-21 21:06:00,
2013-04-21 17:12:00,80.5,72.6,29.92,East,92,2.0,6.0,77,0.00,,---,0.00,VWS V14.01,2013-04-21 21:12:00,
2013-04-21 17:17:00,80.5,73.0,29.92,East,96,1.0,6.0,78,0.00,,---,0.00,VWS V14.01,2013-04-21 21:17:00,
2013-04-21 17:22:00,80.5,73.0,29.92,East,96,5.0,6.0,78,0.00,,---,0.00,VWS V14.01,2013-04-21 21:22:00,
2013-04-21 17:27:00,80.3,72.8,29.92,East,96,0.0,6.0,78,0.00,,---,0.00,VWS V14.01,2013-04-21 21:27:00,
2013-04-21 17:32:00,80.3,72.8,29.93,East,96,3.0,6.0,78,0.00,,---,0.00,VWS V14.01,2013-04-21 21:32:00,
2013-04-21 17:37:00,80.1,72.6,29.93,SE,129,1.0,3.0,78,0.00,,---,0.00,VWS V14.01,2013-04-21 21:37:00,
2013-04-21 17:42:00,80.1,73.0,29.93,NE,37,2.0,3.0,79,0.00,,---,0.00,VWS V14.01,2013-04-21 21:42:00,
2013-04-21 17:47:00,80.1,73.0,29.94,NE,38,3.0,4.0,79,0.00,,---,0.00,VWS V14.01,2013-04-21 21:47:00,
2013-04-21 17:52:00,80.1,73.0,29.94,NE,40,0.0,4.0,79,0.00,,---,0.00,VWS V14.01,2013-04-21 21:52:00,
2013-04-21 17:57:00,80.1,73.0,29.94,NE,48,1.0,4.0,79,0.00,,---,0.00,VWS V14.01,2013-04-21 21:57:00,
2013-04-21 18:02:00,79.9,72.4,29.94,NE,49,2.0,4.0,78,0.00,,---,0.00,VWS V14.01,2013-04-21 22:02:00,
2013-04-21 18:07:00,79.9,72.8,29.94,ENE,70,4.0,6.0,79,0.00,,---,0.00,VWS V14.01,2013-04-21 22:07:00,
2013-04-21 18:12:00,79.9,72.8,29.94,East,90,1.0,6.0,79,0.00,,---,0.00,VWS V14.01,2013-04-21 22:12:00,
2013-04-21 18:17:00,79.9,72.8,29.95,East,90,0.0,6.0,79,0.00,,---,0.00,VWS V14.01,2013-04-21 22:17:00,
2013-04-21 18:22:00,79.9,72.8,29.95,East,90,1.0,6.0,79,0.00,,---,0.00,VWS V14.01,2013-04-21 22:22:00,
2013-04-21 18:27:00,79.8,72.7,29.95,East,90,4.0,6.0,79,0.00,,---,0.00,VWS V14.01,2013-04-21 22:27:00,
2013-04-21 18:32:00,79.8,72.7,29.94,East,91,2.0,6.0,79,0.00,,---,0.00,VWS V14.01,2013-04-21 22:32:00,
2013-04-21 18:37:00,79.6,72.9,29.94,East,91,1.0,4.0,80,0.00,,---,0.00,VWS V14.01,2013-04-21 22:37:00,
2013-04-21 18:42:00,79.6,72.9,29.94,East,92,0.0,4.0,80,0.00,,---,0.00,VWS V14.01,2013-04-21 22:42:00,
2013-04-21 18:47:00,79.6,72.9,29.96,East,92,1.0,4.0,80,0.00,,---,0.00,VWS V14.01,2013-04-21 22:47:00,
2013-04-21 18:52:00,79.4,72.7,29.96,East,92,2.0,4.0,80,0.00,,---,0.00,VWS V14.01,2013-04-21 22:52:00,
2013-04-21 18:57:00,79.4,73.1,29.96,East,92,0.0,4.0,81,0.00,,---,0.00,VWS V14.01,2013-04-21 22:57:00,
2013-04-21 19:02:00,79.6,73.3,29.97,East,92,0.0,4.0,81,0.00,,---,0.00,VWS V14.01,2013-04-21 23:02:00,
2013-04-21 19:08:00,79.6,73.6,29.97,East,92,0.0,0.0,82,0.00,,---,0.00,VWS V14.01,2013-04-21 23:08:00,
2013-04-21 19:13:00,79.6,73.6,29.97,East,92,0.0,2.0,82,0.00,,---,0.00,VWS V14.01,2013-04-21 23:13:00,
2013-04-21 19:18:00,79.4,73.4,29.97,East,92,0.0,2.0,82,0.00,,---,0.00,VWS V14.01,2013-04-21 23:18:00,
2013-04-21 19:23:00,79.4,73.4,29.97,East,92,0.0,2.0,82,0.00,,---,0.00,VWS V14.01,2013-04-21 23:23:00,
2013-04-21 19:28:00,79.4,73.8,29.97,East,92,1.0,2.0,83,0.00,,---,0.00,VWS V14.01,2013-04-21 23:28:00,
2013-04-21 19:33:00,79.4,73.8,29.97,East,92,1.0,4.0,83,0.00,,---,0.00,VWS V14.01,2013-04-21 23:33:00,
2013-04-21 19:38:00,79.4,74.5,29.97,SSW,209,4.0,9.0,85,0.00,,---,0.00,VWS V14.01,2013-04-21 23:38:00,
2013-04-21 19:43:00,78.1,73.6,29.97,SW,222,4.0,11.0,86,0.00,,---,0.00,VWS V14.01,2013-04-21 23:43:00,
2013-04-21 19:48:00,77.0,72.2,29.97,SW,231,2.0,11.0,85,0.00,,---,0.00,VWS V14.01,2013-04-21 23:48:00,
2013-04-21 19:53:00,76.3,71.5,29.97,SW,231,1.0,11.0,85,0.00,,---,0.00,VWS V14.01,2013-04-21 23:53:00,
2013-04-21 19:58:00,75.8,71.0,29.97,SW,231,0.0,11.0,85,0.00,,---,0.00,VWS V14.01,2013-04-21 23:58:00,
2013-04-21 20:03:00,75.4,70.6,29.97,SW,231,0.0,0.0,85,0.01,,---,0.01,VWS V14.01,2013-04-22 00:03:00,
2013-04-21 20:08:00,75.4,70.9,29.97,SW,231,0.0,0.0,86,0.01,,---,0.01,VWS V14.01,2013-04-22 00:08:00,
2013-04-21 20:13:00,75.3,71.2,29.97,SW,231,0.0,0.0,87,0.01,,---,0.01,VWS V14.01,2013-04-22 00:13:00,
2013-04-21 20:18:00,75.3,71.5,29.97,SW,231,0.0,0.0,88,0.01,,---,0.01,VWS V14.01,2013-04-22 00:18:00,
2013-04-21 20:23:00,75.3,72.2,29.97,SW,231,0.0,0.0,90,0.01,,---,0.01,VWS V14.01,2013-04-22 00:23:00,
2013-04-21 20:28:00,75.1,72.0,29.97,SW,231,0.0,0.0,90,0.02,,---,0.02,VWS V14.01,2013-04-22 00:28:00,
2013-04-21 20:33:00,75.1,72.3,29.97,SW,231,0.0,0.0,91,0.02,,---,0.02,VWS V14.01,2013-04-22 00:33:00,
2013-04-21 20:38:00,75.1,72.6,29.97,SW,231,0.0,0.0,92,0.02,,---,0.02,VWS V14.01,2013-04-22 00:38:00,
2013-04-21 20:43:00,75.3,73.1,29.97,SW,231,0.0,0.0,93,0.02,,---,0.02,VWS V14.01,2013-04-22 00:43:00,
2013-04-21 20:48:00,75.1,73.3,29.96,SW,231,0.0,0.0,94,0.02,,---,0.02,VWS V14.01,2013-04-22 00:48:00,
2013-04-21 20:54:00,75.3,73.8,29.96,SW,231,0.0,0.0,95,0.02,,---,0.02,VWS V14.01,2013-04-22 00:54:00,
2013-04-21 20:59:00,75.3,73.8,29.96,SW,231,0.0,0.0,95,0.02,,---,0.02,VWS V14.01,2013-04-22 00:59:00,
2013-04-21 21:04:00,75.4,74.2,29.96,SW,231,0.0,0.0,96,0.01,,---,0.02,VWS V14.01,2013-04-22 01:04:00,
2013-04-21 21:09:00,75.3,74.1,29.96,SW,231,0.0,0.0,96,0.02,,---,0.03,VWS V14.01,2013-04-22 01:09:00,
2013-04-21 21:14:00,75.3,74.4,29.96,SW,231,0.0,0.0,97,0.02,,---,0.03,VWS V14.01,2013-04-22 01:14:00,
2013-04-21 21:19:00,75.3,74.4,29.96,SW,231,0.0,0.0,97,0.02,,---,0.03,VWS V14.01,2013-04-22 01:19:00,
2013-04-21 21:24:00,75.3,74.4,29.96,SW,231,0.0,0.0,97,0.02,,---,0.03,VWS V14.01,2013-04-22 01:24:00,
2013-04-21 21:29:00,75.1,74.2,29.96,SW,231,0.0,0.0,97,0.02,,---,0.03,VWS V14.01,2013-04-22 01:29:00,
2013-04-21 21:34:00,75.1,74.5,29.97,SW,231,0.0,0.0,98,0.01,,---,0.03,VWS V14.01,2013-04-22 01:34:00,
2013-04-21 21:39:00,75.1,74.5,29.97,SW,231,1.0,1.0,98,0.01,,---,0.03,VWS V14.01,2013-04-22 01:39:00,
2013-04-21 21:44:00,75.1,74.5,29.97,SW,231,0.0,1.0,98,0.01,,---,0.03,VWS V14.01,2013-04-22 01:44:00,
2013-04-21 21:49:00,75.1,74.5,29.98,SW,231,0.0,1.0,98,0.01,,---,0.03,VWS V14.01,2013-04-22 01:49:00,
2013-04-21 21:54:00,75.1,74.5,29.98,SW,231,0.0,3.0,98,0.01,,---,0.03,VWS V14.01,2013-04-22 01:54:00,
2013-04-21 21:59:00,75.1,74.5,29.98,SW,231,0.0,3.0,98,0.01,,---,0.03,VWS V14.01,2013-04-22 01:59:00,
2013-04-21 22:04:00,75.1,74.8,29.99,SW,231,0.0,0.0,99,0.01,,---,0.03,VWS V14.01,2013-04-22 02:04:00,
2013-04-21 22:09:00,74.9,74.6,29.99,SW,231,0.0,0.0,99,0.01,,---,0.03,VWS V14.01,2013-04-22 02:09:00,
2013-04-21 22:14:00,74.9,74.6,29.99,SW,231,0.0,3.0,99,0.01,,---,0.03,VWS V14.01,2013-04-22 02:14:00,
2013-04-21 22:19:00,74.9,74.6,29.99,SW,231,0.0,3.0,99,0.01,,---,0.03,VWS V14.01,2013-04-22 02:19:00,
2013-04-21 22:24:00,74.7,74.4,29.99,SW,231,0.0,3.0,99,0.01,,---,0.03,VWS V14.01,2013-04-22 02:24:00,
2013-04-21 22:29:00,74.6,74.3,29.99,SW,231,0.0,3.0,99,0.01,,---,0.03,VWS V14.01,2013-04-22 02:29:00,
2013-04-21 22:34:00,74.6,74.3,29.98,SW,231,0.0,0.0,99,0.00,,---,0.03,VWS V14.01,2013-04-22 02:34:00,
2013-04-21 22:39:00,74.6,74.3,29.98,SW,231,2.0,2.0,99,0.00,,---,0.03,VWS V14.01,2013-04-22 02:39:00,
2013-04-21 22:45:00,74.6,74.3,29.98,SW,231,2.0,3.0,99,0.00,,---,0.03,VWS V14.01,2013-04-22 02:45:00,
2013-04-21 22:50:00,74.7,74.7,29.98,SW,231,2.0,3.0,100,0.00,,---,0.03,VWS V14.01,2013-04-22 02:50:00,
2013-04-21 22:55:00,74.7,74.7,29.98,SW,232,1.0,5.0,100,0.00,,---,0.03,VWS V14.01,2013-04-22 02:55:00,
2013-04-21 23:00:00,74.7,74.7,29.98,West,273,2.0,5.0,100,0.00,,---,0.03,VWS V14.01,2013-04-22 03:00:00,
2013-04-21 23:05:00,74.7,74.7,29.98,West,275,0.0,2.0,100,0.00,,---,0.03,VWS V14.01,2013-04-22 03:05:00,
2013-04-21 23:10:00,74.7,74.7,29.98,West,275,1.0,4.0,100,0.00,,---,0.03,VWS V14.01,2013-04-22 03:10:00,
2013-04-21 23:15:00,74.7,74.7,29.98,West,275,0.0,4.0,100,0.00,,---,0.03,VWS V14.01,2013-04-22 03:15:00,
2013-04-21 23:20:00,74.6,74.6,29.97,West,275,0.0,4.0,100,0.00,,---,0.03,VWS V14.01,2013-04-22 03:20:00,
2013-04-21 23:25:00,74.6,74.6,29.97,West,275,0.0,4.0,100,0.00,,---,0.03,VWS V14.01,2013-04-22 03:25:00,
2013-04-21 23:30:00,74.6,74.6,29.97,West,275,0.0,4.0,100,0.00,,---,0.03,VWS V14.01,2013-04-22 03:30:00,
2013-04-21 23:35:00,74.6,74.6,29.98,West,275,2.0,2.0,100,0.00,,---,0.03,VWS V14.01,2013-04-22 03:35:00,
2013-04-21 23:40:00,74.6,74.6,29.98,West,275,0.0,2.0,100,0.00,,---,0.03,VWS V14.01,2013-04-22 03:40:00,
2013-04-21 23:45:00,74.4,74.4,29.98,West,275,3.0,3.0,100,0.00,,---,0.03,VWS V14.01,2013-04-22 03:45:00,
2013-04-21 23:50:00,74.2,74.2,29.98,West,275,0.0,3.0,100,0.00,,---,0.03,VWS V14.01,2013-04-22 03:50:00,
2013-04-21 23:55:00,74.2,74.2,29.98,West,275,1.0,3.0,100,0.00,,---,0.03,VWS V14.01,2013-04-22 03:55:00,